TimeCST,TemperatureF,Dew PointF,Humidity,Sea Level PressureIn,VisibilityMPH,Wind Direction,Wind SpeedMPH,Gust SpeedMPH,PrecipitationIn,Events,Conditions,WindDirDegrees,DateUTC
12:15 AM,26.4,23.9,90,29.90,10.0,Calm,Calm,-,N/A,,Clear,0,2013-02-13 06:15:00
12:35 AM,26.4,23.9,90,29.90,10.0,Calm,Calm,-,N/A,,Clear,0,2013-02-13 06:35:00
12:55 AM,24.3,22.6,94,29.90,10.0,Calm,Calm,-,N/A,,Clear,0,2013-02-13 06:55:00
1:15 AM,26.1,24.1,92,29.89,10.0,Calm,Calm,-,N/A,,Clear,0,2013-02-13 07:15:00
1:35 AM,27.1,25.0,92,29.89,10.0,Calm,Calm,-,N/A,,Clear,0,2013-02-13 07:35:00
1:55 AM,27.0,24.4,90,29.89,10.0,Calm,Calm,-,N/A,,Clear,0,2013-02-13 07:55:00
2:15 AM,26.6,24.4,92,29.89,10.0,Calm,Calm,-,N/A,,Clear,0,2013-02-13 08:15:00
2:35 AM,25.9,23.9,92,29.89,10.0,Calm,Calm,-,N/A,,Clear,0,2013-02-13 08:35:00
2:55 AM,25.7,23.9,93,29.88,10.0,Calm,Calm,-,N/A,,Clear,0,2013-02-13 08:55:00
3:15 AM,25.0,23.2,93,29.88,10.0,Calm,Calm,-,N/A,,Clear,0,2013-02-13 09:15:00
3:35 AM,23.9,23.0,96,29.87,10.0,Calm,Calm,-,N/A,,Clear,0,2013-02-13 09:35:00
3:55 AM,23.9,23.2,97,29.87,10.0,Calm,Calm,-,N/A,,Clear,0,2013-02-13 09:55:00
4:15 AM,24.3,23.5,97,29.86,10.0,Calm,Calm,-,N/A,,Clear,0,2013-02-13 10:15:00
4:35 AM,24.4,23.7,97,29.86,10.0,Calm,Calm,-,N/A,,Clear,0,2013-02-13 10:35:00
4:55 AM,23.5,22.5,96,29.86,10.0,Calm,Calm,-,N/A,,Clear,0,2013-02-13 10:55:00
5:15 AM,23.7,23.0,97,29.86,10.0,Calm,Calm,-,N/A,,Clear,0,2013-02-13 11:15:00
5:35 AM,22.6,21.4,95,29.85,10.0,West,3.5,-,N/A,,Clear,280,2013-02-13 11:35:00
5:55 AM,22.1,21.7,99,29.86,10.0,WNW,4.6,-,N/A,,Clear,290,2013-02-13 11:55:00
6:15 AM,23.0,22.5,98,29.85,10.0,Calm,Calm,-,N/A,,Clear,0,2013-02-13 12:15:00
6:35 AM,23.5,22.6,96,29.85,10.0,Calm,Calm,-,N/A,,Clear,0,2013-02-13 12:35:00
6:55 AM,22.8,22.1,97,29.85,10.0,Calm,Calm,-,N/A,,Clear,0,2013-02-13 12:55:00
7:15 AM,23.0,22.1,96,29.85,10.0,Calm,Calm,-,N/A,,Clear,0,2013-02-13 13:15:00
7:35 AM,24.1,23.4,97,29.85,10.0,Calm,Calm,-,N/A,,Clear,0,2013-02-13 13:35:00
7:55 AM,24.8,24.1,97,29.86,10.0,Calm,Calm,-,N/A,,Clear,0,2013-02-13 13:55:00
8:15 AM,27.3,26.2,96,29.86,7.0,Calm,Calm,-,0.01,,Clear,0,2013-02-13 14:15:00
8:35 AM,29.5,27.3,92,29.85,10.0,Calm,Calm,-,0.01,,Clear,0,2013-02-13 14:35:00
8:55 AM,29.7,26.6,88,29.85,10.0,SW,3.5,-,0.01,,Clear,230,2013-02-13 14:55:00
9:15 AM,31.8,28.4,87,29.85,10.0,SW,5.8,-,N/A,,Clear,230,2013-02-13 15:15:00
9:35 AM,33.8,28.6,81,29.85,10.0,WSW,6.9,-,N/A,,Unknown,240,2013-02-13 15:35:00
9:55 AM,35.6,28.8,76,29.84,10.0,WSW,6.9,-,N/A,,Unknown,240,2013-02-13 15:55:00
10:15 AM,37.2,29.3,73,29.84,10.0,SW,3.5,-,N/A,,Unknown,230,2013-02-13 16:15:00
10:35 AM,39.4,29.5,68,29.84,10.0,WSW,3.5,-,N/A,,Clear,250,2013-02-13 16:35:00
10:55 AM,41.5,30.4,65,29.83,10.0,Calm,Calm,-,N/A,,Clear,0,2013-02-13 16:55:00
11:15 AM,44.1,31.3,61,29.83,10.0,SSW,4.6,-,N/A,,Clear,210,2013-02-13 17:15:00
11:35 AM,46.8,31.5,55,29.82,10.0,SSW,8.1,-,N/A,,Clear,200,2013-02-13 17:35:00
11:55 AM,48.0,30.9,52,29.81,10.0,SSW,10.4,-,N/A,,Clear,210,2013-02-13 17:55:00
12:15 PM,49.5,30.0,47,29.80,10.0,SW,11.5,-,N/A,,Clear,230,2013-02-13 18:15:00
12:35 PM,50.7,29.8,45,29.79,10.0,SW,9.2,-,N/A,,Clear,230,2013-02-13 18:35:00
12:55 PM,51.3,28.6,42,29.78,10.0,SW,10.4,16.1,N/A,,Clear,230,2013-02-13 18:55:00
1:15 PM,52.0,28.4,40,29.77,10.0,WSW,12.7,-,N/A,,Clear,240,2013-02-13 19:15:00
1:35 PM,53.2,28.0,38,29.77,10.0,WSW,11.5,16.1,N/A,,Clear,250,2013-02-13 19:35:00
1:55 PM,53.6,25.5,34,29.76,10.0,WSW,13.8,-,N/A,,Clear,240,2013-02-13 19:55:00
2:15 PM,53.8,25.7,34,29.75,10.0,WSW,15.0,20.7,N/A,,Clear,250,2013-02-13 20:15:00
2:35 PM,54.3,25.0,32,29.74,10.0,West,12.7,-,N/A,,Scattered Clouds,260,2013-02-13 20:35:00
2:55 PM,54.5,25.5,33,29.74,10.0,WSW,13.8,17.3,N/A,,Clear,250,2013-02-13 20:55:00
3:15 PM,54.5,25.2,32,29.72,10.0,West,11.5,19.6,N/A,,Clear,260,2013-02-13 21:15:00
3:35 PM,53.6,25.2,33,29.72,10.0,WSW,10.4,18.4,N/A,,Clear,240,2013-02-13 21:35:00
3:55 PM,54.3,25.2,32,29.72,10.0,WSW,11.5,18.4,N/A,,Clear,240,2013-02-13 21:55:00
4:15 PM,54.0,25.5,33,29.72,10.0,WSW,10.4,20.7,N/A,,Clear,240,2013-02-13 22:15:00
4:35 PM,54.0,25.3,33,29.72,10.0,WSW,10.4,-,N/A,,Unknown,240,2013-02-13 22:35:00
4:55 PM,53.2,26.8,36,29.72,10.0,SW,10.4,-,N/A,,Mostly Cloudy,230,2013-02-13 22:55:00
5:15 PM,51.8,26.8,38,29.72,10.0,SW,8.1,-,N/A,,Overcast,230,2013-02-13 23:15:00
5:35 PM,50.9,26.6,39,29.72,10.0,WSW,8.1,-,N/A,,Overcast,250,2013-02-13 23:35:00
5:55 PM,50.7,27.9,41,29.72,10.0,West,10.4,-,N/A,,Overcast,270,2013-02-13 23:55:00
6:15 PM,47.3,29.1,49,29.73,10.0,West,9.2,-,N/A,,Scattered Clouds,270,2013-02-14 00:15:00
6:35 PM,43.5,29.5,58,29.73,10.0,WNW,8.1,-,N/A,,Clear,290,2013-02-14 00:35:00
6:55 PM,40.5,29.8,66,29.73,10.0,West,8.1,-,N/A,,Clear,280,2013-02-14 00:55:00
7:15 PM,43.0,30.2,61,29.74,10.0,West,8.1,-,N/A,,Mostly Cloudy,270,2013-02-14 01:15:00
7:35 PM,40.1,29.7,66,29.74,10.0,West,6.9,-,N/A,,Scattered Clouds,280,2013-02-14 01:35:00
7:55 PM,40.1,30.2,68,29.74,10.0,West,4.6,-,N/A,,Mostly Cloudy,260,2013-02-14 01:55:00
8:15 PM,45.0,30.2,56,29.74,10.0,West,9.2,-,N/A,,Overcast,260,2013-02-14 02:15:00
8:35 PM,44.2,29.8,57,29.74,10.0,WSW,9.2,-,N/A,,Mostly Cloudy,250,2013-02-14 02:35:00
8:55 PM,39.4,29.8,69,29.74,10.0,West,6.9,-,N/A,,Mostly Cloudy,280,2013-02-14 02:55:00
9:15 PM,36.5,29.3,75,29.75,10.0,West,8.1,-,N/A,,Scattered Clouds,280,2013-02-14 03:15:00
9:35 PM,35.1,29.3,80,29.75,10.0,WNW,8.1,-,N/A,,Clear,290,2013-02-14 03:35:00
9:55 PM,34.3,30.0,84,29.76,10.0,WNW,8.1,-,N/A,,Scattered Clouds,290,2013-02-14 03:55:00
10:15 PM,36.5,31.1,81,29.76,10.0,West,10.4,-,N/A,,Mostly Cloudy,270,2013-02-14 04:15:00
10:35 PM,38.1,31.5,77,29.77,10.0,West,11.5,-,N/A,,Overcast,270,2013-02-14 04:35:00
10:55 PM,38.7,31.1,74,29.77,10.0,West,11.5,-,N/A,,Scattered Clouds,270,2013-02-14 04:55:00
11:15 PM,37.8,31.1,77,29.77,10.0,West,10.4,-,N/A,,Clear,280,2013-02-14 05:15:00
11:35 PM,36.7,31.1,80,29.78,10.0,West,10.4,-,N/A,,Scattered Clouds,280,2013-02-14 05:35:00
11:55 PM,38.3,31.6,77,29.79,10.0,West,13.8,-,N/A,,Scattered Clouds,270,2013-02-14 05:55:00